Location: Meanaryar
(48.4161°N, 4.7315°W)
Time: 01:57:17
(UTC+00:00)

ARIANE 5 R/B - Pass Details

Date: 18 September 2020
Orbit: 620 x 657 km, 98.2° (Epoch: 23 October)

Event Time Altitude Azimuth Distance (km) Brightness Sun altitude
Exits shadow 21:15:16 56° 340° (NNW) 747 3.1 -27.1°
Drops below altitude 10° 21:18:44 10° 345° (NNW) 2,003 5.8 -27.6°
Sets 21:20:55 0° 346° (NNW) 2,912 6.8 -27.8°
